SCP
0 0 0 0 1 1 1 0 0 0 0 0 0 0 1 1 1 1 1 1 1 2 2 2 2 2 2 2 1 1 1 1 1 1 1 1 1 1 1 1 1 1 1
0 0 0 0 0 0 0 0 0 0 0 0 0 0 0 0 1 1 1 1 1 1 2 2 2 2 2 2 1 1 1 1 1 1 1 1 1 1 1 1 1 1 1
0 0 0 0 0 0 0 0 0 0 0 0 0 0 0 0 0 1 1 1 1 1 1 1 1 2 2 1 1 1 1 1 1 1 1 1 1 1 1 1 1 1 1
1 1 1 1 0 0 0 0 0 0 0 0 0 0 0 0 0 1 1 1 1 1 1 1 1 2 2 1 1 1 1 1 1 1 1 1 1 1 1 1 1 1 1
1 1 1 1 0 0 0 0 0 0 0 0 0 0 0 0 0 0 1 1 1 1 1 1 1 1 2 1 1 1 1 1 1 1 1 1 1 1 1 1 1 1 1
1 1 1 1 0 0 0 0 0 0 0 0 0 0 0 0 0 0 0 1 1 1 1 1 1 1 1 1 1 1 1 1 1 1 1 1 1 1 1 1 1 1 1
1 1 1 1 1 0 0 0 0 0 0 0 0 0 0 0 0 0 0 0 1 1 1 1 1 1 1 2 1 1 1 1 1 1 1 1 1 1 1 1 1 1 1
1 1 1 1 1 1 0 0 0 0 0 0 1 1 0 0 0 0 0 0 1 1 1 1 1 1 1 1 1 2 2 2 1 1 2 2 2 2 2 2 2 2 2
1 1 1 1 1 1 1 0 0 1 0 1 1 1 1 1 1 0 0 0 1 1 1 1 1 1 1 1 1 2 2 2 2 2 2 2 3 3 3 2 2 2 2
2 1 1 1 1 1 1 1 1 1 1 1 1 1 1 1 1 1 0 0 0 1 1 1 1 1 1 1 1 1 2 2 2 2 2 3 3 3 3 3 3 2 2
2 2 1 1 1 1 1 1 1 1 1 1 1 1 1 1 1 1 0 0 0 1 1 1 1 1 1 1 1 1 1 2 2 2 3 3 4 4 4 3 3 2 2
2 2 1 1 1 1 1 1 1 1 1 1 1 1 1 1 1 1 0 0 0 0 1 1 1 1 1 1 1 1 1 1 1 2 2 3 4 4 3 3 3 3 2
2 2 2 1 1 1 1 1 2 1 1 1 1 1 1 1 1 1 1 0 0 0 0 1 0 0 1 1 1 1 1 1 1 1 2 2 3 3 2 2 3 3 3
2 2 2 2 2 2 2 1 2 2 2 1 1 1 1 1 1 1 1 0 0 0 0 1 1 1 0 0 0 0 1 1 1 1 1 1 1 1 1 2 2 2 3
2 2 2 2 2 2 2 1 1 1 1 1 1 1 1 1 1 1 1 1 1 0 0 1 1 1 1 0 0 0 1 1 1 1 1 1 1 1 1 1 1 1 1
2 2 2 3 3 2 2 1 1 1 1 1 1 1 1 1 1 1 1 1 1 1 1 1 1 1 1 1 0 1 1 1 1 1 1 0 0 0 0 0 0 0 0
2 2 3 3 3 3 2 1 1 1 1 1 1 1 1 1 1 1 1 1 1 1 1 1 1 1 1 1 1 1 1 1 1 1 1 0 0 0 0 0 0 0 0
2 3 3 4 4 4 3 2 2 2 1 1 1 1 2 2 2 2 2 2 2 2 2 1 1 1 1 1 1 1 1 1 1 1 1 1 0 0 0 0 0 0 0
3 3 4 5 5 5 4 2 2 2 2 2 2 2 2 3 3 3 3 3 3 3 2 2 1 1 1 1 1 1 1 1 1 1 1 1 1 1 0 0 0 0 0
3 4 5 6 6 5 4 3 2 2 2 3 3 3 3 4 4 4 4 4 4 3 3 2 2 1 1 1 1 1 1 1 1 1 1 1 1 1 1 1 0 0 0
3 4 5 6 6 5 4 3 3 3 3 3 4 4 4 4 4 4 4 4 4 4 3 3 2 2 2 2 2 2 1 1 1 1 1 1 1 1 0 0 0 0 0
4 4 4 5 4 4 3 3 3 3 4 4 4 4 4 4 4 4 3 3 3 3 3 3 3 2 2 2 2 2 2 2 1 1 1 1 1 0 0 0 0 0 0
4 4 4 4 4 4 3 3 2 3 3 4 3 3 3 3 3 3 2 2 2 2 2 2 3 2 2 3 3 3 3 2 2 1 1 1 1 1 1 0 0 0 0
4 4 4 4 4 3 3 2 2 2 3 3 2 2 2 2 2 2 2 2 2 2 2 2 2 2 2 2 3 3 3 3 2 2 2 2 2 2 2 1 1 0 0
5 5 6 6 5 4 3 1 1 1 2 2 1 1 1 1 1 1 1 2 2 2 2 2 2 2 2 1 2 2 3 3 2 2 2 3 3 2 2 1 1 0 0
5 5 7 7 6 5 3 2 1 2 2 2 1 1 1 1 1 1 1 1 2 2 2 2 1 1 1 1 1 2 3 3 3 2 2 3 3 2 1 1 1 1 0
Wind_Speed
2 2 1 1 1 1 2 1 1 2 2 2 2 3 3 3 3 3 2 7 7 7 7 7 7 7 7 6 5 5 6 7 7 7 7 6 6 6 7 7 7 7 7
3 3 2 2 1 1 1 1 2 2 1 2 2 2 3 3 3 3 3 4 7 7 7 7 7 7 7 6 5 4 5 7 6 6 6 6 6 6 7 7 7 7 7
3 3 2 2 1 1 1 1 1 1 1 1 1 2 2 3 3 4 3 3 3 5 7 7 7 7 7 6 5 4 4 6 5 6 5 5 5 5 5 6 6 7 7
3 3 2 1 1 1 1 2 1 1 1 1 1 1 1 2 3 3 3 3 2 3 5 8 7 7 7 7 6 6 5 5 4 5 4 4 4 4 5 5 5 6 6
2 3 2 1 2 1 1 1 1 1 1 1 1 1 1 2 2 3 3 4 3 3 2 4 7 7 7 7 6 6 5 5 5 5 5 6 6 5 6 6 6 6 6
2 3 2 1 2 2 1 1 1 1 1 1 1 1 1 1 1 2 3 3 3 3 3 2 2 4 6 6 6 6 6 5 5 5 5 5 6 6 6 7 7 7 7
3 3 2 2 2 2 2 2 2 1 0 1 1 1 2 1 1 2 2 2 3 3 3 3 2 2 2 5 6 6 7 7 6 6 6 6 6 6 6 7 7 8 8
3 3 3 2 2 2 1 1 1 1 0 1 2 1 1 3 2 1 1 2 2 2 3 4 3 3 2 2 3 7 7 7 7 7 6 6 7 6 6 7 8 9 9
2 2 3 3 2 2 2 1 1 2 1 1 2 3 2 2 2 2 1 2 2 2 3 3 4 4 4 2 2 5 8 8 8 8 7 7 7 7 7 7 8 9 8
2 2 2 2 2 2 2 2 2 2 2 1 1 1 2 3 2 1 2 1 2 2 3 4 4 4 4 3 4 5 7 8 8 8 8 7 7 7 8 8 8 8 8
1 2 3 2 2 2 2 2 1 2 2 2 2 1 1 1 1 2 2 2 2 2 2 3 3 3 4 4 3 5 7 7 8 8 8 7 7 7 7 8 8 8 9
1 1 2 2 2 2 2 2 2 2 2 2 2 1 2 1 2 2 3 2 2 2 2 2 2 3 3 3 5 5 6 6 7 7 7 7 7 7 7 8 7 8 8
1 2 2 2 2 2 2 2 2 2 2 2 2 2 2 2 2 2 2 2 1 2 1 1 2 2 3 2 3 5 6 5 6 6 6 6 6 6 6 6 6 6 6
3 3 3 3 3 2 2 2 2 2 1 2 2 2 1 2 2 2 3 3 1 1 1 2 1 2 2 2 3 5 4 6 6 6 6 6 6 6 5 5 5 4 4
3 3 3 3 3 3 3 2 2 1 1 2 2 1 1 1 1 1 2 3 4 2 2 3 2 2 2 2 3 3 3 5 6 6 6 6 6 6 6 5 4 4 3
3 3 3 3 2 2 2 2 2 1 1 2 1 1 1 1 1 1 1 1 2 3 3 3 3 2 2 3 4 3 3 5 6 6 6 6 7 6 6 6 6 5 4
3 3 3 3 2 2 2 2 2 2 2 2 2 1 1 1 0 1 0 1 1 2 2 2 1 1 2 2 1 2 2 3 3 7 7 7 7 7 6 6 5 5 5
3 3 3 3 2 2 2 3 3 3 2 2 2 1 1 1 0 0 0 1 1 2 3 2 1 1 2 2 2 2 2 2 3 5 5 5 5 6 6 7 6 6 6
3 2 3 3 3 3 2 2 3 3 2 2 2 2 2 1 1 1 1 1 1 1 1 2 2 1 1 1 1 2 2 2 3 3 4 5 5 6 6 7 7 8 7
3 3 3 3 3 3 2 2 2 2 2 2 2 2 2 2 2 2 1 1 1 1 1 1 1 1 1 1 0 1 2 2 2 2 2 3 4 6 7 7 7 8 8
3 3 3 3 2 2 2 2 3 3 2 2 1 2 2 2 2 2 2 2 2 1 1 1 1 1 1 1 1 2 2 2 2 2 1 2 2 2 4 6 7 8 8
3 2 3 3 3 2 3 3 3 3 3 3 2 1 2 2 2 2 2 2 3 3 3 2 2 2 3 2 2 1 1 0 2 2 1 3 1 2 3 3 6 8 8
3 2 2 3 2 2 3 3 3 3 3 3 3 2 1 1 1 1 2 1 1 2 4 4 3 4 3 3 2 2 1 2 3 3 1 2 2 3 3 4 7 7 7
3 3 3 2 2 2 2 3 3 3 2 2 3 3 2 1 1 1 0 0 1 2 2 2 3 3 3 3 3 3 3 2 2 2 1 2 2 2 3 3 5 7 8
3 3 3 3 2 2 2 2 3 2 1 1 1 1 2 2 2 1 1 0 2 3 2 1 2 3 3 3 2 1 0 0 2 3 1 1 2 2 2 2 4 6 7
3 3 2 3 3 2 2 3 3 2 1 1 1 1 2 1 1 2 2 1 1 3 2 2 1 2 2 2 2 3 2 2 1 2 2 1 1 0 2 2 2 2 3
Wind_Direction
149 150 155 145 152 159 167 167 176 183 184 192 184 170 169 176 171 170 182 189 197 200 198 195 194 192 192 195 196 198 201 200 196 196 199 200 201 203 201 198 191 186 187
152 148 145 145 147 161 160 161 173 172 177 172 181 174 173 175 175 173 180 195 201 203 202 200 198 196 196 195 198 203 200 202 199 199 200 205 205 208 208 204 197 196 196
143 141 141 144 152 154 130 128 129 123 140 153 167 183 179 176 176 180 183 192 204 209 206 200 201 200 193 190 190 190 190 193 192 191 193 197 202 203 198 197 198 198 200
135 130 132 148 160 140 130 133 135 129 152 165 188 213 195 185 187 188 186 194 201 213 211 206 204 200 196 195 197 196 186 179 185 189 189 192 195 194 197 199 201 196 203
136 132 138 151 134 123 128 163 139 148 165 176 193 216 220 198 198 195 193 199 203 207 205 212 207 201 203 207 207 200 192 192 192 198 203 208 209 206 200 200 204 205 210
146 134 137 141 126 123 128 127 151 154 172 182 188 211 251 215 195 202 206 201 196 195 188 193 196 208 209 211 210 202 203 205 204 209 212 212 215 214 209 208 211 216 222
150 142 147 143 140 149 165 154 148 142 167 132 93 7 341 334 228 221 210 194 198 194 173 179 181 190 205 209 211 211 212 215 214 217 219 220 221 220 220 221 221 223 228
158 160 156 163 160 150 140 127 131 133 210 150 144 119 354 340 318 262 206 193 199 186 186 193 195 197 207 209 206 212 216 219 219 221 219 220 223 224 227 230 227 228 233
166 160 163 167 161 159 173 184 159 152 198 262 165 154 164 222 290 316 267 217 200 193 198 191 198 205 201 204 217 219 216 218 222 224 223 221 222 226 230 233 232 232 232
168 165 168 168 159 154 174 196 157 163 163 228 261 219 194 171 169 280 317 283 234 214 210 199 199 202 204 207 209 207 212 216 220 225 226 225 225 228 229 233 234 234 235
188 180 175 167 167 171 185 184 164 164 177 193 213 228 229 193 165 168 252 291 300 259 222 201 195 199 206 209 214 217 216 217 220 225 228 229 229 231 233 235 237 237 236
242 225 176 169 176 182 189 193 194 187 195 198 206 192 180 179 201 182 212 242 255 267 246 212 203 207 209 207 215 212 211 213 219 225 228 230 230 233 240 241 242 239 234
222 230 205 187 192 196 193 185 187 205 207 207 217 218 211 210 196 178 176 214 247 277 297 272 237 212 206 205 215 210 213 214 219 221 224 228 230 233 238 241 241 244 241
211 213 199 201 200 196 196 183 184 205 207 223 233 222 217 229 200 185 176 167 189 299 294 262 266 232 224 213 219 206 215 216 219 218 222 225 227 228 231 237 239 242 247
206 202 198 197 200 196 190 177 188 204 203 226 234 222 217 238 222 211 183 171 167 201 256 253 248 248 233 219 218 210 212 217 216 217 224 229 228 224 224 224 226 232 236
203 191 197 195 197 198 189 184 199 210 215 242 227 200 228 248 241 232 200 190 173 178 218 242 234 238 226 221 214 213 224 222 222 225 226 229 228 224 221 218 219 221 221
194 193 191 191 188 190 193 189 209 214 226 253 255 217 240 239 235 264 232 190 186 169 202 262 263 253 213 226 232 234 233 226 232 232 232 233 230 225 220 218 221 224 225
204 197 190 184 191 195 196 195 210 212 207 231 246 221 245 248 262 278 267 239 220 198 183 228 275 280 247 239 236 237 246 235 236 235 230 233 231 228 224 221 220 222 225
198 194 181 185 196 203 204 204 205 208 199 209 212 200 221 204 238 255 250 236 227 218 177 188 250 270 276 279 295 279 268 276 249 234 221 232 235 233 229 227 224 223 223
191 193 188 191 189 187 193 204 199 201 205 212 210 202 207 202 213 230 233 223 203 184 182 184 241 272 269 273 218 254 289 287 269 264 246 239 239 237 233 230 229 227 226
194 195 179 180 186 192 209 208 208 201 199 207 211 205 208 199 208 219 220 208 192 195 199 200 230 263 271 271 249 240 251 275 281 259 274 266 245 245 239 238 235 234 230
189 173 178 180 188 222 236 215 202 201 198 193 205 225 224 207 238 251 248 217 197 199 204 203 220 228 248 240 239 236 228 306 287 270 220 269 220 242 244 233 241 239 234
175 170 189 183 197 227 221 204 201 186 190 189 192 205 230 252 237 259 271 271 265 236 203 192 204 229 236 232 218 236 225 224 244 256 196 267 264 255 253 247 237 237 238
177 185 195 198 190 213 200 198 191 180 182 202 207 203 199 243 263 217 197 343 311 297 244 207 215 233 229 225 207 213 219 246 278 276 175 238 266 256 264 257 249 241 243
179 184 182 182 177 216 188 176 164 157 174 217 226 205 196 207 247 187 138 276 315 312 313 230 216 236 241 233 193 138 65 47 301 288 230 204 266 279 279 267 260 249 243
182 179 184 190 180 181 164 149 156 151 161 220 275 261 221 207 229 180 169 180 269 288 320 357 346 315 294 279 229 192 191 198 237 278 262 202 248 272 302 285 272 273 261